Notices

What's New in latest Release from April 7th, 2021:

- Updated Glossary, including Speed of Maximum Gust, and Total Hourly Precipitation

- Updated national and regional climate services offices contacts and prices information

- Addition of station inventory lists for 1981-2010, 1971-2000, and 1961-1990 Normals.

If you haven't already, please take our survey and provide feedback about our website: https://eccc.sondage-survey.ca/f/LanguageSelection.aspx?s=442ca660-fcf1-47c0-95a9-59707d6fd709

Hourly Data Report for April 08, 2003

TORONTO CITY
ONTARIO

43°40'00.000" N
79°24'00.000" W
112.50 m
6158355
71508
XTO

Download Data

Hourly Data (April 2003)
Hourly Data Report for April 8, 2003
TIME
LST
Temp Definition
°C
Dew Point Definition
°C
Rel Hum Definition
%
Precip. Amount Definition
mm

Wind Dir Definition
10's deg

Wind Spd Definition
km/h
Visibility Definition
km
Stn Press Definition
kPa
Hmdx Definition


Wind Chill Definition


Weather Definition


00:00 -2.8 -4.0 91   LegendMM LegendMM LegendMM 101.38     LegendNANA
01:00 -2.4 -4.1 88   LegendMM LegendMM LegendMM 101.34     LegendNANA
02:00 -2.4 -4.2 87   LegendMM LegendMM LegendMM 101.31     LegendNANA
03:00 -2.3 -3.8 89   LegendMM LegendMM LegendMM 101.32     LegendNANA
04:00 -2.1 -3.5 90   LegendMM LegendMM LegendMM 101.28     LegendNANA
05:00 -1.7 -2.8 92   LegendMM LegendMM LegendMM 101.25     LegendNANA
06:00 -2.3 -3.4 92   LegendMM LegendMM LegendMM 101.26     LegendNANA
07:00 -2.7 -3.8 92   LegendMM LegendMM LegendMM 101.28     LegendNANA
08:00 -2.8 -4.4 89   LegendMM LegendMM LegendMM 101.28     LegendNANA
09:00 -1.9 -3.9 86   LegendMM LegendMM LegendMM 101.31     LegendNANA
10:00 -1.5 -3.6 86   LegendMM LegendMM LegendMM 101.34     LegendNANA
11:00 -1.1 -3.5 84   LegendMM LegendMM LegendMM 101.31     LegendNANA
12:00 -0.3 -3.2 81   LegendMM LegendMM LegendMM 101.25     LegendNANA
13:00 0.2 -3.3 77   LegendMM LegendMM LegendMM 101.23     LegendNANA
14:00 0.4 -3.4 76   LegendMM LegendMM LegendMM 101.22     LegendNANA
15:00 0.3 -3.3 77   LegendMM LegendMM LegendMM 101.24     LegendNANA
16:00 0.4 -3.6 74   LegendMM LegendMM LegendMM 101.23     LegendNANA
17:00 0.3 -3.5 76   LegendMM LegendMM LegendMM 101.25     LegendNANA
18:00 0.1 -3.2 78   LegendMM LegendMM LegendMM 101.29     LegendNANA
19:00 0.1 -3.7 76   LegendMM LegendMM LegendMM 101.33     LegendNANA
20:00 0.1 -3.7 76   LegendMM LegendMM LegendMM 101.30     LegendNANA
21:00 -0.1 -4.1 74   LegendMM LegendMM LegendMM 101.31     LegendNANA
22:00 -0.2 -4.4 73   LegendMM LegendMM LegendMM 101.25     LegendNANA
23:00 -0.3 -4.5 73   LegendMM LegendMM LegendMM 101.22     LegendNANA

Notes on Data Quality.

Legend

  • E = Estimated
  • M = Missing
  • NA = Not Available*
  • [empty] = Indicates an unobserved value
Date modified: